WetterOnline ( https://www.wetteronline.de )

Wetter aktuell Berching

Aktuelles Wetter: Gelbelsee (539m)

6-stündlich | Neueste Meldungen
Ortszeit Temperatur Wetter
Mi, 17.08. 20:00 27.0° C wolkig
Mi, 17.08. 14:00 29.2° C leicht bewölkt
Mi, 17.08. 8:00 20.3° C wolkig
Mi, 17.08. 2:00 18.9° C leicht bewölkt
Di, 16.08. 20:00 25.6° C wolkenlos
Di, 16.08. 14:00 24.0° C wolkig
Di, 16.08. 8:00 16.5° C wolkenlos
Di, 16.08. 2:00 15.4° C fast wolkenlos
Ortszeit Temperatur Wetter
Do, 18.08. 0:00 23.1° C bedeckt
Mi, 17.08. 23:50 23.1° C bedeckt
Mi, 17.08. 23:40 23.3° C bedeckt
Mi, 17.08. 23:30 23.0° C bedeckt
Mi, 17.08. 23:20 23.0° C bedeckt
Mi, 17.08. 23:10 22.8° C bedeckt
Mi, 17.08. 23:00 22.9° C bedeckt
Mi, 17.08. 22:30 23.0° C bedeckt
Mi, 17.08. 22:00 23.9° C bedeckt
Mi, 17.08. 21:30 24.2° C leicht bewölkt
Mi, 17.08. 21:00 24.8° C wolkig
Ortszeit Relative Feuchte Sichtweite
Mi, 17.08. 20:00 36% 55 km
Mi, 17.08. 14:00 29% 45 km
Mi, 17.08. 8:00 58% 60 km
Mi, 17.08. 2:00 58% 60 km
Di, 16.08. 20:00 37% 50 km
Di, 16.08. 14:00 43% 65 km
Di, 16.08. 8:00 77% 55 km
Di, 16.08. 2:00 84% 55 km
Ortszeit Relative Feuchte Sichtweite
Do, 18.08. 0:00 47% 55 km
Mi, 17.08. 23:50 47% -
Mi, 17.08. 23:40 47% -
Mi, 17.08. 23:30 48% 55 km
Mi, 17.08. 23:20 48% -
Mi, 17.08. 23:10 49% -
Mi, 17.08. 23:00 49% 60 km
Mi, 17.08. 22:30 48% 50 km
Mi, 17.08. 22:00 46% 50 km
Mi, 17.08. 21:30 45% 50 km
Mi, 17.08. 21:00 43% 45 km
Ortszeit Niederschlagsmenge Niederschlagsart
Mi, 17.08. 20:00 0.0 l/m2 in 12 Std. -
Mi, 17.08. 14:00 0.0 l/m2 in 6 Std. -
Mi, 17.08. 8:00 0.0 l/m2 in 12 Std. -
Mi, 17.08. 2:00 0.0 l/m2 in 6 Std. -
Di, 16.08. 20:00 0.0 l/m2 in 12 Std. -
Di, 16.08. 14:00 0.0 l/m2 in 6 Std. -
Di, 16.08. 8:00 0.2 l/m2 in 12 Std. -
Di, 16.08. 2:00 0.2 l/m2 in 6 Std. Regen
Ortszeit Niederschlagsmenge Niederschlagsart
Do, 18.08. 0:00 0.0 l/m2 in 1 Std. -
Mi, 17.08. 23:50 keine Meldung -
Mi, 17.08. 23:40 keine Meldung -
Mi, 17.08. 23:30 0.0 l/m2 in 1 Std. -
Mi, 17.08. 23:20 keine Meldung -
Mi, 17.08. 23:10 keine Meldung -
Mi, 17.08. 23:00 0.0 l/m2 in 1 Std. -
Mi, 17.08. 22:30 0.0 l/m2 in 1 Std. -
Mi, 17.08. 22:00 0.0 l/m2 in 1 Std. -
Mi, 17.08. 21:30 0.0 l/m2 in 1 Std. -
Mi, 17.08. 21:00 0.0 l/m2 in 1 Std. -
Ortszeit Stärke Spitze Richtung
km/h Bft. km/h Grad Sektor
Mi, 17.08. 20:00 9 2 20 320° NW
Mi, 17.08. 14:00 11 2 25 110° O
Mi, 17.08. 8:00 6 1 11 90° O
Mi, 17.08. 2:00 0 0 11 - -
Di, 16.08. 20:00 6 1 28 270° W
Di, 16.08. 14:00 14 3 32 240° SW
Di, 16.08. 8:00 7 2 18 200° S
Di, 16.08. 2:00 7 2 65 200° S
Ortszeit Stärke Spitze Richtung
km/h Bft. km/h Grad Sektor
Do, 18.08. 0:00 9 2 15 360° N
Mi, 17.08. 23:50 9 2 - 360° N
Mi, 17.08. 23:40 7 2 - 10° N
Mi, 17.08. 23:30 7 2 14 20° N
Mi, 17.08. 23:20 7 2 - 20° N
Mi, 17.08. 23:10 7 2 - 10° N
Mi, 17.08. 23:00 9 2 22 340° N
Mi, 17.08. 22:30 9 2 22 350° N
Mi, 17.08. 22:00 14 3 22 340° N
Mi, 17.08. 21:30 14 3 18 340° N
Mi, 17.08. 21:00 13 3 22 340° N
Ortszeit Untergrenze Bedeckung Gattung
total tief tief mittel hoch
Mi, 17.08. 20:00 2700 m 8/8 1/8 - - -
Mi, 17.08. 14:00 4200 m 5/8 2/8 - - -
Mi, 17.08. 8:00 6600 m 6/8 2/8 - - -
Mi, 17.08. 2:00 10500 m 5/8 0/8 - - -
Di, 16.08. 20:00 - 0/8 0/8 - - -
Di, 16.08. 14:00 1800 m 5/8 5/8 - - -
Di, 16.08. 8:00 - 0/8 0/8 - - -
Di, 16.08. 2:00 9000 m 2/8 0/8 - - -
Ortszeit Bedeckungsgrad in Achtel und Wolkenuntergrenze
Do, 18.08. 0:00 2(3000m) 8(3900m)
Mi, 17.08. 23:50 2(3000m) 8(3900m)
Mi, 17.08. 23:40 8
Mi, 17.08. 23:30 8(4200m)
Mi, 17.08. 23:20 8(4200m)
Mi, 17.08. 23:10 8
Mi, 17.08. 23:00 8(4500m) 8(5100m) 8(6000m)
Mi, 17.08. 22:30 4(4500m) 8(5400m)
Mi, 17.08. 22:00 8(5400m) 8(6600m)
Mi, 17.08. 21:30 3(5400m) 4(6000m)
Mi, 17.08. 21:00 5(6300m)
Ortszeit Luftdruck NN (hPa) Tendenz (hPa in 3 Std.)
Mi, 17.08. 20:00 1009 - 0,1
Mi, 17.08. 14:00 1009 - 0,3
Mi, 17.08. 8:00 1011 + 0,4
Mi, 17.08. 2:00 1011 - 0,1
Di, 16.08. 20:00 1009 + 0,1
Di, 16.08. 14:00 1010 - 0,3
Di, 16.08. 8:00 1011 + 0,5
Di, 16.08. 2:00 1011 + 0,8
Ortszeit Luftdruck NN (hPa) Tendenz (hPa in 3 Std.)
Do, 18.08. 0:00 1009 + 0,1
Mi, 17.08. 23:50 1009 keine Meldung
Mi, 17.08. 23:40 1009 keine Meldung
Mi, 17.08. 23:30 1009 - 0,2
Mi, 17.08. 23:20 1009 keine Meldung
Mi, 17.08. 23:10 1009 keine Meldung
Mi, 17.08. 23:00 1009 0,0
Mi, 17.08. 22:30 1009 + 0,1
Mi, 17.08. 22:00 1009 - 0,3
Mi, 17.08. 21:30 1009 - 0,3
Mi, 17.08. 21:00 1009 - 0,4
Ortszeit Schneehöhe (cm)
Mi, 17.08. 20:00 0
Mi, 17.08. 14:00 0
Mi, 17.08. 8:00 0
Mi, 17.08. 2:00 0
Di, 16.08. 20:00 0
Di, 16.08. 14:00 0
Di, 16.08. 8:00 0
Di, 16.08. 2:00 0
Ortszeit Schneehöhe (cm)
Do, 18.08. 0:00 0
Mi, 17.08. 23:50 0
Mi, 17.08. 23:40 0
Mi, 17.08. 23:30 0
Mi, 17.08. 23:20 0
Mi, 17.08. 23:10 0
Mi, 17.08. 23:00 0
Mi, 17.08. 22:30 0
Mi, 17.08. 22:00 0
Mi, 17.08. 21:30 0
Mi, 17.08. 21:00 0
Link zu dieser Seite / Seite empfehlen

Das Wetter in ...